Wind_Speed
60 60 60 61 60 61 62 63 64 65 66 67 68 68 68 68 70 71 70 72 73 75 77 80 85 89 94 101 101 103 101 93 95 94 92 94 92 85 85 82 81 84 81 78 74
55 56 57 56 57 59 61 62 63 64 65 67 68 69 70 71 73 74 75 76 76 77 78 80 81 85 90 93 98 102 102 97 102 102 95 96 93 92 90 88 85 84 83 85 80
50 51 50 51 52 54 56 58 61 63 65 67 68 69 70 72 73 76 77 78 80 81 83 83 84 84 85 91 95 97 101 103 105 107 98 97 99 99 96 96 91 92 88 86 86
37 42 43 43 45 47 50 52 53 54 59 63 67 70 71 73 74 76 77 79 81 83 86 88 87 86 87 87 90 93 97 107 104 109 109 104 104 102 101 102 99 97 96 91 82
17 28 33 34 36 38 41 43 44 45 49 52 56 58 61 65 69 72 76 79 82 83 85 88 90 91 91 91 89 89 92 99 108 109 112 111 103 108 106 109 109 101 99 97 88
7 8 19 24 26 28 29 32 35 39 42 45 47 49 52 57 60 60 62 66 71 77 83 88 91 91 92 93 93 92 89 94 100 110 114 115 102 104 102 108 110 107 102 101 94
35 21 11 16 19 21 21 21 22 26 31 36 39 43 46 49 52 56 56 57 61 64 68 75 81 86 90 93 94 95 94 92 97 108 115 118 106 105 109 110 112 107 103 101 92
69 51 34 24 19 17 18 20 20 23 25 28 35 38 40 42 44 48 49 48 51 56 58 62 65 69 76 83 90 95 94 95 96 103 113 120 113 119 106 106 108 112 108 100 100
66 65 64 62 55 41 27 19 19 24 26 27 28 31 32 34 36 38 41 43 44 46 49 52 54 55 58 63 71 83 92 96 97 99 109 117 120 119 121 115 107 108 113 108 108
62 61 61 59 58 58 58 53 40 23 19 26 29 28 29 30 33 33 34 41 42 43 44 47 47 45 46 53 63 73 82 94 100 102 103 113 118 120 117 115 112 109 110 113 111
63 59 57 56 57 58 58 58 57 55 52 36 22 28 31 30 31 33 33 34 38 39 41 44 45 42 40 43 51 63 77 85 97 103 105 110 117 118 121 122 126 118 111 107 111
64 61 60 58 58 56 57 58 58 57 56 55 55 43 25 30 34 33 34 35 35 38 39 42 44 44 42 39 43 51 63 81 93 101 107 110 115 117 120 123 123 123 119 111 108
65 64 63 62 61 57 55 56 57 58 57 57 57 56 54 38 23 30 37 37 38 38 40 41 42 44 46 46 45 50 57 69 84 95 103 109 112 117 120 124 128 123 125 119 107
65 65 63 65 64 63 58 57 54 56 56 56 56 57 57 56 51 34 25 36 43 43 45 44 45 46 47 49 50 49 51 58 68 81 95 103 107 116 120 122 127 134 132 128 126
61 64 63 65 64 64 64 61 60 55 55 57 56 57 58 58 59 54 40 28 31 43 51 50 51 52 53 52 53 54 54 53 62 70 80 92 102 99 117 124 126 128 135 137 135
59 59 62 62 65 63 64 63 62 56 55 57 59 59 58 61 61 63 60 49 31 33 42 52 57 58 58 58 58 57 59 61 59 65 71 82 94 90 104 122 125 127 129 138 141
59 60 60 60 63 65 64 65 64 60 57 55 58 60 62 61 62 63 65 62 52 38 35 42 51 59 65 64 64 64 63 64 66 65 66 75 82 88 102 110 122 127 128 129 137
59 61 61 60 61 63 64 66 66 65 61 60 56 59 61 62 64 65 67 66 63 50 39 41 44 52 58 64 70 68 69 71 68 68 71 70 72 87 97 106 114 123 129 132 133
58 62 61 60 61 63 63 65 67 65 66 65 62 59 62 64 65 67 69 71 73 57 44 39 44 49 53 56 61 69 75 76 73 72 73 72 73 79 89 103 114 120 125 128 133
58 60 64 61 61 63 62 64 66 66 65 66 68 64 64 68 70 70 73 74 77 64 47 39 36 46 53 54 53 55 65 78 80 75 75 74 76 81 87 92 104 120 127 129 130
55 59 61 64 61 62 64 65 65 68 66 68 71 69 63 69 73 74 77 78 79 69 48 41 40 40 48 52 48 48 54 66 72 78 81 77 79 84 89 93 95 104 119 127 131
55 57 59 64 63 64 65 67 70 70 66 65 70 71 68 69 72 77 79 82 83 70 49 45 41 42 44 42 41 42 49 54 59 66 72 80 80 90 92 93 90 93 102 114 128
56 57 60 63 65 66 68 70 72 75 72 67 70 72 73 71 73 76 78 83 86 74 50 47 42 37 38 34 32 35 39 44 49 52 59 63 73 86 92 91 91 94 98 102 106
56 56 60 62 66 68 70 73 74 74 73 70 70 72 74 73 75 77 78 83 87 74 53 49 42 34 32 27 26 31 32 32 35 41 50 52 60 72 77 79 82 86 89 94 101
58 57 58 61 64 66 71 75 77 78 74 72 68 72 74 74 75 80 82 86 91 71 52 47 39 28 26 23 23 26 28 31 33 42 38 53 50 64 60 62 67 67 66 73 76
57 58 61 63 63 68 69 74 75 82 78 76 71 74 74 74 75 78 80 86 89 72 51 45 35 29 24 19 17 23 30 29 27 37 36 46 53 53 53 56 56 54 55 56 57
59 59 62 65 64 68 71 75 75 81 85 77 73 74 76 77 77 80 82 86 85 67 50 44 31 26 17 16 18 27 24 22 28 36 39 42 46 43 45 45 44 41 44 45 42
Wind_Direction
238 238 239 240 242 243 244 244 245 245 245 245 246 246 246 245 245 244 243 243 242 241 241 240 238 238 236 235 233 234 234 234 234 234 234 235 238 238 239 239 239 239 241 246 248
240 239 239 240 243 245 246 247 247 247 248 248 248 248 248 248 247 247 247 246 245 244 244 241 240 238 238 236 233 233 231 230 232 234 234 233 237 240 240 241 242 239 238 241 245
239 240 241 242 244 247 249 251 252 252 252 251 251 251 251 251 250 250 249 249 248 247 245 244 242 239 238 239 237 233 230 230 231 235 234 233 233 238 238 238 240 243 243 241 241
238 240 242 244 246 249 251 253 255 257 256 255 255 255 254 254 253 252 251 251 250 249 248 247 244 242 239 239 237 235 231 228 230 232 235 233 233 235 238 238 237 238 242 244 244
241 241 244 249 251 254 256 256 256 257 258 259 259 259 258 257 256 256 255 254 253 251 250 249 248 244 241 240 239 237 233 231 228 231 231 235 234 235 236 238 238 239 238 240 242
30 271 253 258 261 265 268 267 263 262 261 262 261 260 258 258 257 257 256 256 255 253 253 252 250 247 244 241 239 238 235 231 231 229 230 231 229 231 237 240 240 241 240 240 240
48 35 338 304 294 290 293 282 279 272 268 266 264 262 262 262 260 257 257 257 257 255 255 254 252 251 247 243 240 237 235 232 229 229 229 228 227 226 229 233 239 242 243 245 241
54 52 43 24 0 337 319 302 290 275 274 281 270 266 264 263 261 259 259 258 259 256 255 254 254 252 249 245 241 237 235 233 230 227 228 228 227 225 226 237 242 243 243 242 244
52 52 52 52 50 43 26 349 309 289 282 279 277 271 270 269 269 268 263 262 263 258 254 251 253 252 247 244 239 235 233 231 230 228 227 227 229 229 231 232 234 240 243 244 241
46 49 50 49 47 46 45 44 38 16 315 284 280 278 276 272 268 269 267 264 262 256 252 249 253 253 250 243 236 232 230 229 228 227 228 228 227 230 230 231 229 236 241 242 242
40 42 42 44 42 41 42 40 39 40 39 27 344 290 275 273 270 265 265 268 264 259 257 252 252 253 254 249 239 233 229 227 227 225 226 227 227 229 230 230 230 233 236 240 242
38 37 37 37 37 37 34 36 35 34 33 34 32 26 350 292 276 274 270 266 267 263 259 258 254 251 252 253 248 241 233 227 226 225 225 226 227 228 229 230 233 234 236 237 240
30 34 35 33 33 30 32 30 29 29 29 28 27 27 26 16 335 283 271 270 268 266 262 260 259 256 252 248 247 244 239 232 229 227 226 227 227 227 229 231 230 233 237 238 235
20 22 26 27 29 28 28 25 24 23 23 24 23 22 21 21 19 360 311 276 267 265 264 261 258 256 252 250 248 248 244 239 235 231 229 228 228 228 229 231 234 234 234 235 235
17 19 18 19 20 23 24 23 21 19 17 17 18 17 16 15 15 14 3 322 287 268 262 259 259 256 254 251 248 246 245 243 238 235 233 233 228 232 230 230 233 234 236 239 239
16 12 12 12 14 14 16 17 17 15 13 11 11 11 12 10 9 8 7 359 329 288 272 263 256 255 253 251 249 246 243 242 241 237 233 233 232 230 234 232 233 235 237 237 239
14 13 10 9 10 10 10 11 12 13 10 6 5 5 5 6 5 3 2 358 350 326 291 272 264 257 253 251 250 247 244 243 240 241 237 234 232 230 233 235 235 235 236 238 239
12 9 8 7 6 6 5 6 6 6 7 5 1 1 0 1 360 360 359 355 351 338 315 294 277 265 258 252 248 248 247 245 241 240 240 239 235 235 234 234 235 237 238 239 239
6 8 9 4 1 3 2 1 2 2 0 0 0 356 356 357 357 356 356 354 351 342 323 303 289 281 268 260 253 245 245 246 244 242 240 240 239 238 239 236 237 236 238 241 242
360 2 3 3 0 0 2 360 357 358 358 356 357 354 353 352 353 353 352 352 350 342 326 311 300 282 275 269 260 252 247 245 245 242 243 241 242 242 241 240 237 238 239 240 242
356 356 359 1 359 359 358 359 356 357 354 354 352 353 350 349 350 350 350 350 348 343 328 314 306 289 275 270 269 262 251 247 245 244 242 241 243 245 245 242 240 240 240 242 244
354 355 355 359 355 357 355 356 355 354 354 351 349 349 350 347 348 348 348 347 345 343 330 317 309 294 285 280 272 262 256 253 248 246 245 242 242 246 246 246 246 245 243 244 244
351 351 351 355 355 353 353 355 352 352 352 349 348 346 348 344 346 346 347 344 344 341 332 323 313 298 293 288 277 265 257 252 250 249 249 247 245 247 249 249 247 246 246 246 245
346 347 348 353 352 351 349 350 351 349 349 349 345 343 346 342 343 345 345 344 343 341 331 326 319 313 299 289 272 260 255 252 249 248 248 248 246 248 249 252 253 251 250 249 248
341 343 343 348 348 348 346 346 347 347 347 347 343 342 343 341 342 343 344 344 342 341 332 329 321 311 298 289 271 261 253 249 244 247 246 253 249 252 254 253 255 256 255 253 252
336 339 338 343 346 344 343 343 344 345 345 345 343 342 342 341 341 342 344 343 341 338 334 331 320 306 302 289 271 258 251 248 245 251 248 250 255 256 257 258 258 258 257 255 254
332 335 335 339 343 342 341 342 341 342 343 345 342 342 341 341 340 342 342 342 342 337 334 333 321 311 324 294 265 259 281 271 259 257 254 255 255 261 262 261 263 261 259 256 253
Height
10617 10624 10631 10638 10644 10648 10653 10657 10662 10667 10671 10675 10679 10683 10687 10691 10694 10697 10702 10705 10710 10714 10718 10724 10730 10738 10745 10756 10766 10775 10788 10807 10810 10812 10820 10824 10830 10844 10849 10854 10863 10872 10879 10881 10885
10608 10614 10620 10628 10634 10639 10643 10647 10651 10656 10659 10661 10665 10669 10672 10676 10680 10683 10686 10690 10695 10699 10702 10707 10713 10720 10727 10734 10745 10754 10775 10786 10787 10791 10805 10816 10826 10828 10835 10839 10847 10853 10862 10865 10872
10600 10607 10614 10620 10626 10630 10634 10637 10641 10646 10648 10650 10652 10656 10659 10662 10665 10667 10670 10674 10677 10681 10684 10689 10696 10702 10709 10715 10726 10739 10756 10763 10772 10776 10790 10801 10811 10812 10818 10822 10830 10833 10842 10850 10858
10595 10603 10610 10615 10619 10623 10626 10630 10634 10636 10636 10637 10639 10642 10645 10646 10649 10651 10655 10657 10660 10662 10666 10669 10676 10685 10692 10698 10706 10719 10733 10742 10754 10760 10767 10778 10785 10797 10799 10801 10807 10817 10825 10834 10841
10593 10601 10607 10612 10615 10618 10621 10623 10625 10625 10625 10627 10628 10630 10631 10631 10632 10635 10637 10639 10641 10644 10646 10649 10654 10663 10670 10678 10686 10696 10710 10723 10733 10739 10747 10751 10773 10778 10779 10776 10785 10801 10808 10815 10829
10596 10601 10606 10609 10612 10614 10615 10616 10616 10616 10616 10616 10616 10617 10617 10617 10619 10619 10619 10619 10621 10624 10626 10629 10632 10640 10648 10656 10664 10676 10689 10700 10712 10717 10723 10735 10753 10748 10762 10762 10764 10776 10789 10803 10817
10601 10604 10607 10609 10609 10609 10610 10609 10609 10608 10607 10605 10604 10604 10605 10604 10606 10603 10604 10604 10604 10606 10608 10608 10612 10617 10623 10632 10642 10654 10665 10677 10685 10692 10703 10713 10739 10743 10738 10736 10744 10766 10776 10784 10796
10611 10609 10609 10608 10607 10606 10604 10603 10601 10600 10598 10596 10594 10592 10592 10592 10591 10589 10590 10590 10590 10590 10591 10591 10593 10595 10598 10605 10615 10628 10641 10654 10663 10673 10680 10696 10717 10709 10717 10730 10735 10743 10753 10768 10776
10623 10620 10617 10614 10610 10606 10602 10598 10595 10592 10590 10587 10585 10583 10581 10580 10578 10578 10579 10579 10577 10577 10577 10576 10577 10579 10582 10586 10591 10602 10617 10628 10641 10651 10660 10674 10688 10687 10701 10716 10719 10718 10730 10745 10753
10635 10630 10625 10620 10616 10610 10604 10599 10592 10586 10582 10579 10576 10575 10573 10571 10568 10567 10567 10565 10564 10564 10564 10564 10565 10566 10567 10568 10575 10583 10593 10604 10617 10629 10637 10651 10665 10667 10681 10694 10703 10703 10710 10723 10734
10643 10637 10632 10626 10620 10614 10607 10600 10593 10587 10580 10574 10570 10566 10563 10560 10557 10556 10555 10554 10552 10552 10552 10552 10553 10554 10555 10555 10560 10567 10574 10584 10594 10608 10619 10631 10644 10653 10661 10677 10682 10686 10690 10700 10711
10648 10642 10636 10630 10623 10616 10609 10602 10595 10588 10581 10574 10568 10561 10555 10552 10549 10547 10546 10544 10543 10542 10541 10540 10541 10543 10544 10546 10548 10552 10557 10562 10571 10583 10597 10607 10624 10634 10640 10653 10658 10664 10670 10677 10685
10653 10646 10640 10632 10626 10618 10611 10604 10597 10589 10581 10572 10566 10560 10553 10546 10541 10538 10535 10533 10533 10532 10530 10530 10530 10532 10534 10534 10534 10536 10542 10550 10558 10567 10579 10588 10601 10612 10618 10625 10636 10644 10651 10658 10667
10655 10649 10642 10635 10627 10620 10612 10604 10597 10590 10583 10575 10567 10560 10552 10545 10537 10531 10526 10523 10521 10520 10518 10519 10519 10518 10519 10521 10524 10526 10530 10535 10541 10547 10557 10567 10583 10591 10595 10600 10605 10618 10626 10632 10644
10658 10651 10643 10635 10628 10621 10613 10605 10596 10589 10583 10575 10566 10558 10549 10542 10536 10529 10522 10514 10509 10506 10504 10505 10505 10504 10505 10507 10510 10513 10516 10521 10525 10531 10541 10543 10564 10567 10569 10573 10581 10592 10603 10608 10617
10660 10652 10644 10636 10629 10622 10613 10604 10595 10587 10579 10571 10563 10555 10548 10538 10529 10521 10514 10508 10502 10496 10490 10487 10490 10488 10488 10490 10493 10498 10500 10503 10507 10513 10523 10525 10540 10553 10539 10552 10562 10570 10580 10591 10594
10661 10653 10645 10637 10629 10620 10612 10604 10595 10585 10576 10568 10560 10550 10541 10534 10526 10516 10507 10498 10491 10483 10478 10474 10470 10470 10470 10472 10475 10477 10482 10485 10490 10495 10501 10507 10520 10524 10524 10531 10541 10549 10558 10567 10575
10661 10653 10644 10636 10628 10619 10610 10601 10591 10583 10574 10566 10556 10548 10539 10530 10520 10512 10503 10492 10482 10472 10464 10457 10454 10450 10448 10451 10456 10460 10462 10462 10471 10478 10481 10490 10502 10496 10499 10509 10519 10528 10535 10541 10549
10658 10651 10643 10634 10625 10617 10608 10598 10588 10580 10570 10560 10552 10541 10532 10523 10513 10503 10494 10483 10473 10462 10452 10444 10436 10430 10427 10429 10432 10439 10440 10443 10450 10457 10462 10472 10480 10479 10475 10486 10497 10506 10508 10512 10519
10658 10649 10641 10632 10623 10614 10605 10595 10585 10575 10566 10555 10544 10533 10522 10512 10502 10492 10481 10473 10461 10448 10437 10429 10425 10412 10405 10405 10410 10417 10420 10420 10426 10437 10444 10453 10457 10453 10454 10463 10472 10475 10479 10488 10499
10655 10647 10639 10632 10622 10612 10602 10593 10582 10572 10561 10551 10538 10528 10517 10505 10491 10481 10468 10460 10448 10436 10424 10413 10406 10397 10388 10386 10391 10395 10397 10397 10404 10414 10421 10433 10435 10432 10430 10433 10445 10458 10464 10471 10473
10651 10643 10636 10627 10619 10609 10598 10587 10577 10566 10558 10548 10535 10523 10511 10500 10487 10471 10458 10445 10434 10423 10410 10398 10391 10380 10372 10374 10375 10377 10377 10380 10385 10392 10400 10406 10421 10404 10405 10413 10428 10433 10434 10442 10446
10645 10637 10630 10622 10612 10603 10593 10583 10571 10560 10549 10539 10529 10517 10503 10491 10481 10468 10453 10438 10422 10406 10397 10385 10375 10367 10360 10360 10360 10360 10361 10364 10369 10375 10379 10387 10394 10387 10383 10391 10401 10407 10409 10415 10419
10641 10633 10624 10615 10606 10596 10585 10575 10566 10556 10544 10533 10522 10510 10499 10484 10471 10461 10446 10429 10413 10398 10382 10371 10361 10355 10349 10347 10347 10346 10348 10353 10359 10360 10360 10366 10368 10361 10366 10374 10377 10380 10387 10391 10393
10635 10628 10620 10614 10604 10594 10582 10572 10561 10550 10539 10530 10517 10504 10493 10479 10466 10449 10432 10414 10395 10384 10372 10361 10350 10345 10338 10337 10336 10337 10339 10342 10346 10344 10353 10341 10354 10342 10354 10357 10357 10360 10367 10365 10373
10628 10621 10613 10607 10600 10588 10579 10569 10557 10545 10533 10519 10508 10494 10484 10471 10458 10444 10427 10407 10389 10371 10362 10352 10342 10335 10331 10331 10330 10328 10327 10331 10337 10334 10340 10335 10332 10335 10340 10341 10341 10344 10345 10348 10352
10621 10612 10603 10599 10592 10581 10571 10562 10552 10540 10525 10515 10502 10488 10472 10458 10444 10432 10416 10401 10384 10365 10353 10343 10334 10328 10328 10325 10324 10320 10324 10328 10327 10324 10324 10323 10321 10325 10326 10328 10328 10332 10330 10331 10337